DW2633 Weather Reports


time (UTC)temp
C
wind
direction
speed
KPH
gust
KPH
rain 1hr
cm
rain 24hr
cm
rain mn
cm
humidity
%
barometer
mb
20260905055542 18 111 4.8 0.0 0.00 0.00 0.00 85 1009.6
20260905055040 18 101 4.8 0.0 0.00 0.00 0.00 84 1009.6
20260905054551 18 107 1.6 0.0 0.00 0.00 0.00 84 1009.7
20260905054039 18 79 1.6 0.0 0.00 0.00 0.00 82 1009.7
20260905053538 18 73 3.2 0.0 0.00 0.00 0.00 82 1009.7
20260905053036 19 94 4.8 0.0 0.00 0.00 0.00 81 1009.7
20260905052538 19 73 6.4 0.0 0.00 0.00 0.00 80 1009.8
20260905052035 19 80 8.0 0.0 0.00 0.00 0.00 81 1009.8
20260905051534 19 355 8.0 0.0 0.00 0.00 0.00 78 1009.9
20260905051033 19 346 8.0 0.0 0.00 0.00 0.00 79 1009.9
20260905050534 19 346 9.7 0.0 0.00 0.00 0.00 79 1010.0
20260905050033 20 342 8.0 0.0 0.00 0.00 0.00 78 1010.0
20260905045532 20 355 8.0 0.0 0.00 0.00 0.00 79 1010.0
20260905045033 20 15 8.0 0.0 0.00 0.00 0.00 79 1009.9
20260905044532 20 9 8.0 0.0 0.00 0.00 0.00 79 1010.0
20260905044031 20 360 8.0 0.0 0.00 0.00 0.00 79 1010.0
20260905043531 20 5 8.0 0.0 0.00 0.00 0.00 77 1010.1
20260905043030 19 16 6.4 0.0 0.00 0.00 0.00 79 1010.1
20260905042529 19 15 6.4 0.0 0.00 0.00 0.00 79 1010.0
20260905042029 19 39 4.8 0.0 0.00 0.00 0.00 78 1010.0
20260905041528 19 47 3.2 0.0 0.00 0.00 0.00 77 1010.0
20260905041027 20 63 3.2 0.0 0.00 0.00 0.00 77 1010.0
20260905040527 20 96 3.2 0.0 0.00 0.00 0.00 77 1010.1
20260905040032 20 70 4.8 0.0 0.00 0.00 0.00 78 1010.0
20260905035525 20 57 4.8 0.0 0.00 0.00 0.00 76 1010.0
20260905035026 20 58 4.8 0.0 0.00 0.00 0.00 75 1010.0
20260905034530 20 5 6.4 0.0 0.00 0.00 0.00 75 1010.0
20260905034026 20 36 6.4 0.0 0.00 0.00 0.00 76 1010.0
20260905033525 20 10 6.4 0.0 0.00 0.00 0.00 78 1010.0
20260905033030 20 47 6.4 0.0 0.00 0.00 0.00 76 1009.8
20260905032525 20 28 6.4 0.0 0.00 0.00 0.00 78 1009.9
20260905032025 20 30 8.0 0.0 0.00 0.00 0.00 78 1010.0
20260905031524 20 11 9.7 0.0 0.00 0.00 0.00 79 1010.1
20260905031024 20 335 8.0 0.0 0.00 0.00 0.00 77 1010.3
20260905030524 20 319 4.8 0.0 0.00 0.00 0.00 78 1010.1
20260905030024 20 333 3.2 0.0 0.00 0.00 0.00 79 1010.0
20260905025525 20 43 6.4 0.0 0.00 0.00 0.00 78 1009.9
20260905025024 20 62 8.0 0.0 0.00 0.00 0.00 79 1009.9
20260905024524 20 338 8.0 0.0 0.00 0.00 0.00 77 1010.0
20260905024024 20 335 8.0 0.0 0.00 0.00 0.00 79 1010.0
20260905023524 20 5 8.0 0.0 0.00 0.00 0.00 77 1010.0
20260905023023 20 330 6.4 0.0 0.00 0.00 0.00 77 1010.0
20260905022525 19 331 6.4 0.0 0.00 0.00 0.00 79 1010.0
20260905022023 19 321 8.0 0.0 0.00 0.00 0.00 79 1010.1
20260905021523 18 338 9.7 0.0 0.00 0.00 0.00 81 1010.1
20260905021023 18 288 6.4 0.0 0.00 0.00 0.00 81 1010.2
20260905020522 18 287 3.2 0.0 0.00 0.00 0.00 81 1010.2
20260905020026 18 299 3.2 0.0 0.00 0.00 0.00 81 1010.3
20260905015524 18 134 4.8 0.0 0.00 0.00 0.00 82 1010.3
20260905015023 18 134 3.2 0.0 0.00 0.00 0.00 81 1010.4
20260905014522 19 135 1.6 0.0 0.00 0.00 0.00 81 1010.4
20260905014022 19 134 1.6 0.0 0.00 0.00 0.00 81 1010.4
20260905013522 19 134 3.2 0.0 0.00 0.00 0.00 81 1010.3
20260905013021 20 134 4.8 0.0 0.00 0.00 0.00 80 1010.4
20260905012521 20 128 3.2 0.0 0.00 0.00 0.00 79 1010.4
20260905012021 20 113 3.2 0.0 0.00 0.00 0.00 78 1010.3
20260905011521 20 326 4.8 0.0 0.00 0.00 0.00 78 1010.2
20260905011021 20 324 6.4 0.0 0.00 0.00 0.00 77 1010.2
20260905010521 20 335 6.4 0.0 0.00 0.00 0.00 73 1010.2
20260905010022 20 332 8.0 0.0 0.00 0.00 0.00 73 1010.2
20260905005521 21 313 9.7 0.0 0.00 0.00 0.00 74 1010.2
20260905005019 21 341 9.7 0.0 0.00 0.00 0.00 72 1010.3
20260905004521 21 319 9.7 0.0 0.00 0.00 0.00 73 1010.2
20260905004020 21 328 11.3 0.0 0.00 0.00 0.00 72 1010.3
20260905003520 21 325 12.9 0.0 0.00 0.00 0.00 71 1010.2
20260905003020 21 324 14.5 0.0 0.00 0.00 0.00 71 1010.0
20260905002520 21 321 16.1 0.0 0.00 0.00 0.00 70 1009.9
20260905002020 21 312 16.1 0.0 0.00 0.00 0.00 72 1009.9
20260905001520 21 313 17.7 0.0 0.00 0.00 0.00 70 1009.9
20260905001023 21 312 17.7 0.0 0.00 0.00 0.00 72 1009.9
20260905000519 21 305 17.7 0.0 0.00 0.00 0.00 70 1009.8
20260905000019 21 302 17.7 0.0 0.00 0.00 0.00 71 1009.6
20260904235519 21 306 19.3 0.0 0.00 0.00 0.00 70 1009.6
20260904235021 22 299 17.7 0.0 0.00 0.00 0.00 70 1009.5
20260904234521 22 302 17.7 0.0 0.00 0.00 0.00 71 1009.7
20260904234019 22 303 14.5 0.0 0.00 0.00 0.00 70 1009.7
20260904233518 22 322 11.3 0.0 0.00 0.00 0.00 75 1009.5
20260904233018 22 317 11.3 0.0 0.00 0.00 0.00 73 1009.4
20260904232518 22 317 11.3 0.0 0.00 0.00 0.00 73 1009.4
20260904232017 22 327 12.9 0.0 0.00 0.00 0.00 73 1009.4
20260904231518 22 321 12.9 0.0 0.00 0.00 0.00 71 1009.4
20260904231017 22 319 14.5 0.0 0.00 0.00 0.00 70 1009.2
20260904230517 22 309 14.5 0.0 0.00 0.00 0.00 71 1009.3
20260904230029 22 317 11.3 0.0 0.00 0.00 0.00 73 1009.3
20260904225516 22 314 9.7 0.0 0.00 0.00 0.00 73 1009.3
20260904225017 22 315 9.7 0.0 0.00 0.00 0.00 72 1009.1
20260904224525 22 318 11.3 0.0 0.00 0.00 0.00 73 1009.2
20260904224017 22 325 11.3 0.0 0.00 0.00 0.00 72 1009.2
20260904223520 22 336 12.9 0.0 0.00 0.00 0.00 69 1009.2
20260904223016 22 337 12.9 0.0 0.00 0.00 0.00 69 1009.0
20260904222520 22 324 12.9 0.0 0.00 0.00 0.00 67 1008.9
20260904222016 22 324 11.3 0.0 0.00 0.00 0.00 67 1009.0
20260904221522 23 325 11.3 0.0 0.00 0.00 0.00 70 1008.9
20260904221016 23 319 11.3 0.0 0.00 0.00 0.00 69 1008.9
20260904220515 23 324 12.9 0.0 0.00 0.00 0.00 68 1008.8
20260904220015 23 310 14.5 0.0 0.00 0.00 0.00 68 1008.7
20260904215514 23 319 16.1 0.0 0.00 0.00 0.00 68 1008.8
20260904215015 23 329 14.5 0.0 0.00 0.00 0.00 64 1008.9
20260904214520 23 323 14.5 0.0 0.00 0.00 0.00 66 1008.8
20260904214015 23 305 16.1 0.0 0.00 0.00 0.00 66 1008.7
20260904213515 23 304 14.5 0.0 0.00 0.00 0.00 67 1008.6
20260904213017 23 300 14.5 0.0 0.00 0.00 0.00 68 1008.7
20260904212515 23 306 17.7 0.0 0.00 0.00 0.00 66 1008.6
20260904212014 24 291 19.3 0.0 0.00 0.00 0.00 70 1008.7
20260904211514 24 289 19.3 0.0 0.00 0.00 0.00 69 1008.6
20260904211013 24 289 22.5 0.0 0.00 0.00 0.00 67 1008.7
20260904210513 24 287 24.1 0.0 0.00 0.00 0.00 64 1008.9
20260904210012 24 285 22.5 0.0 0.00 0.00 0.00 66 1008.9
20260904205512 24 291 22.5 0.0 0.00 0.00 0.00 63 1008.9
20260904205010 24 302 25.7 0.0 0.00 0.00 0.00 61 1009.0
20260904204512 24 297 24.1 0.0 0.00 0.00 0.00 61 1009.0
20260904204011 24 286 22.5 0.0 0.00 0.00 0.00 65 1009.0
20260904203510 24 295 24.1 0.0 0.00 0.00 0.00 63 1009.1
20260904203010 24 297 25.7 0.0 0.00 0.00 0.00 62 1009.1
20260904202509 24 294 25.7 0.0 0.00 0.00 0.00 62 1009.0
20260904202008 24 302 22.5 0.0 0.00 0.00 0.00 61 1009.0
20260904201508 24 291 22.5 0.0 0.00 0.00 0.00 63 1009.0
20260904201009 24 300 20.9 0.0 0.00 0.00 0.00 63 1009.0
20260904200508 24 296 17.7 0.0 0.00 0.00 0.00 62 1008.9
20260904200010 24 319 16.1 0.0 0.00 0.00 0.00 62 1008.9
20260904195509 24 320 16.1 0.0 0.00 0.00 0.00 61 1009.0
20260904195008 25 312 14.5 0.0 0.00 0.00 0.00 62 1009.0
20260904194508 25 340 14.5 0.0 0.00 0.00 0.00 62 1009.0
20260904194008 24 324 17.7 0.0 0.00 0.00 0.00 61 1009.0
20260904193508 24 330 17.7 0.0 0.00 0.00 0.00 61 1008.9
20260904193014 24 334 17.7 0.0 0.00 0.00 0.00 63 1008.9
20260904192506 24 320 19.3 0.0 0.00 0.00 0.00 63 1008.9
20260904192005 24 314 19.3 0.0 0.00 0.00 0.00 62 1008.9
20260904191505 24 306 19.3 0.0 0.00 0.00 0.00 57 1009.2
20260904191004 24 299 16.1 0.0 0.00 0.00 0.00 63 1009.2
20260904190503 24 303 14.5 0.0 0.00 0.00 0.00 64 1009.2
20260904190002 24 312 16.1 0.0 0.00 0.00 0.00 63 1009.2
20260904185502 24 315 17.7 0.0 0.00 0.00 0.00 62 1009.2
20260904185002 24 309 17.7 0.0 0.00 0.00 0.00 64 1009.3
20260904184502 24 315 16.1 0.0 0.00 0.00 0.00 64 1009.4
20260904184002 24 319 14.5 0.0 0.00 0.00 0.00 62 1009.6
20260904183601 24 319 16.1 0.0 0.00 0.00 0.00 62 1009.6
20260904183114 24 324 16.1 0.0 0.00 0.00 0.00 65 1009.7
20260904182600 24 331 17.7 0.0 0.00 0.00 0.00 62 1009.8
20260904182100 25 327 16.1 0.0 0.00 0.00 0.00 64 1009.7
20260904181602 25 317 14.5 0.0 0.00 0.00 0.00 65 1009.8
20260904181059 25 331 14.5 0.0 0.00 0.00 0.00 62 1009.9
20260904180601 25 327 14.5 0.0 0.00 0.00 0.00 69 1009.9
20260904175556 24 296 14.5 0.0 0.00 0.00 0.00 67 1009.9
20260904175055 24 292 14.5 0.0 0.00 0.00 0.00 65 1009.9
20260904174555 24 299 14.5 0.0 0.00 0.00 0.00 68 1009.8
20260904174055 23 298 14.5 0.0 0.00 0.00 0.00 63 1009.9
20260904173553 23 294 14.5 0.0 0.00 0.00 0.00 64 1009.9
20260904173053 23 315 17.7 0.0 0.00 0.00 0.00 63 1010.0
20260904172553 23 326 17.7 0.0 0.00 0.00 0.00 67 1010.0
20260904172054 23 319 16.1 0.0 0.00 0.00 0.00 67 1010.0
20260904171554 23 322 16.1 0.0 0.00 0.00 0.00 65 1010.0
20260904171053 23 313 12.9 0.0 0.00 0.00 0.00 61 1010.0
20260904170552 23 314 9.7 0.0 0.00 0.00 0.00 61 1010.0
20260904170053 23 299 8.0 0.0 0.00 0.00 0.00 62 1010.0
20260904165550 23 294 6.4 0.0 0.00 0.00 0.00 63 1010.0
20260904165049 23 309 3.2 0.0 0.00 0.00 0.00 65 1009.9
20260904164548 23 275 3.2 0.0 0.00 0.00 0.00 69 1009.8
20260904164047 23 275 3.2 0.0 0.00 0.00 0.00 68 1009.9
20260904163546 23 9 3.2 0.0 0.00 0.00 0.00 68 1010.0
20260904163051 22 9 4.8 0.0 0.00 0.00 0.00 66 1010.0
20260904162546 22 355 6.4 0.0 0.00 0.00 0.00 67 1010.0
20260904162046 22 11 8.0 0.0 0.00 0.00 0.00 67 1010.1
20260904161546 22 342 8.0 0.0 0.00 0.00 0.00 67 1010.3
20260904161044 22 337 4.8 0.0 0.00 0.00 0.00 68 1010.4
20260904160543 22 331 1.6 0.0 0.00 0.00 0.00 70 1010.5
20260904160043 22 339 0.0 0.0 0.00 0.00 0.00 72 1010.5
20260904155542 22 338 3.2 0.0 0.00 0.00 0.00 73 1010.5
20260904155045 22 310 3.2 0.0 0.00 0.00 0.00 74 1010.5
20260904154540 22 309 4.8 0.0 0.00 0.00 0.00 74 1010.7
20260904154039 22 329 3.2 0.0 0.00 0.00 0.00 72 1010.8
20260904153537 21 202 0.0 0.0 0.00 0.00 0.00 78 1010.8
20260904153048 21 253 1.6 0.0 0.00 0.00 0.00 75 1010.8
20260904152535 21 253 1.6 0.0 0.00 0.00 0.00 80 1010.7
20260904152034 21 252 0.0 0.0 0.00 0.00 0.00 77 1010.8
20260904151534 21 252 3.2 0.0 0.00 0.00 0.00 77 1010.8
20260904151034 21 252 4.8 0.0 0.00 0.00 0.00 84 1011.0
20260904150535 21 264 3.2 0.0 0.00 0.00 0.00 82 1011.3
20260904150031 20 280 3.2 0.0 0.00 0.00 0.00 82 1011.3
20260904145531 20 279 3.2 0.0 0.00 0.00 0.00 83 1011.1
20260904145030 20 279 4.8 0.0 0.00 0.00 0.00 82 1011.1
20260904144531 20 279 4.8 0.0 0.00 0.00 0.00 83 1011.1
20260904144027 20 279 3.2 0.0 0.00 0.00 0.00 84 1011.2
20260904143526 20 265 3.2 0.0 0.00 0.00 0.00 85 1011.2
20260904143025 20 265 3.2 0.0 0.00 0.00 0.00 85 1011.2
20260904142524 19 264 3.2 0.0 0.00 0.00 0.00 86 1011.3
20260904142024 19 264 4.8 0.0 0.00 0.00 0.00 87 1011.2
20260904141523 19 262 4.8 0.0 0.00 0.00 0.00 87 1011.1
20260904141021 19 274 4.8 0.0 0.00 0.00 0.00 87 1011.1
20260904140520 18 319 3.2 0.0 0.00 0.00 0.00 89 1011.0
20260904140020 18 311 1.6 0.0 0.00 0.00 0.00 88 1011.0
20260904135519 18 311 1.6 0.0 0.00 0.00 0.00 87 1011.0
20260904135019 18 312 1.6 0.0 0.00 0.00 0.00 88 1011.0
20260904134522 18 312 1.6 0.0 0.00 0.00 0.00 88 1010.9
20260904134017 18 312 3.2 0.0 0.00 0.00 0.00 88 1010.9
20260904133516 18 312 4.8 0.0 0.00 0.00 0.00 88 1011.0
20260904133016 18 311 4.8 0.0 0.00 0.00 0.00 88 1011.1
20260904132517 18 314 3.2 0.0 0.00 0.00 0.00 89 1011.0
20260904132015 18 338 3.2 0.0 0.00 0.00 0.00 90 1010.8
20260904131515 18 338 3.2 0.0 0.00 0.00 0.00 91 1010.9
20260904131015 18 350 1.6 0.0 0.00 0.00 0.00 91 1010.9
20260904130515 18 351 1.6 0.0 0.00 0.00 0.00 91 1011.0
20260904130032 17 351 4.8 0.0 0.00 0.00 0.00 92 1011.1
20260904125513 17 351 4.8 0.0 0.00 0.00 0.00 94 1011.1
20260904125013 17 5 6.4 0.0 0.00 0.00 0.00 97 1011.0
20260904124510 17 360 4.8 0.0 0.00 0.00 0.00 97 1011.2
20260904124008 16 355 1.6 0.0 0.00 0.00 0.00 97 1011.2
20260904123509 16 115 0.0 0.0 0.00 0.00 0.00 97 1011.0
20260904123016 16 115 0.0 0.0 0.00 0.00 0.00 97 1011.1
20260904122508 16 115 0.0 0.0 0.00 0.00 0.00 97 1011.1
20260904122008 16 115 0.0 0.0 0.00 0.00 0.00 97 1011.1
20260904121507 16 115 1.6 0.0 0.00 0.00 0.00 97 1011.1
20260904121007 15 115 3.2 0.0 0.00 0.00 0.00 97 1011.1
20260904120511 15 115 3.2 0.0 0.00 0.00 0.00 97 1011.1
20260904120008 15 94 1.6 0.0 0.00 0.00 0.00 97 1011.1
20260904115507 15 130 1.6 0.0 0.00 0.00 0.00 97 1011.1
20260904115009 14 130 1.6 0.0 0.00 0.00 0.00 97 1011.2
20260904114506 14 133 1.6 0.0 0.00 0.00 0.00 97 1011.1
20260904114008 14 133 1.6 0.0 0.00 0.00 0.00 96 1011.0
20260904113505 13 133 3.2 0.0 0.00 0.00 0.00 96 1011.0
20260904113005 13 133 3.2 0.0 0.00 0.00 0.00 96 1011.0
20260904112504 13 133 3.2 0.0 0.00 0.00 0.00 96 1011.0
20260904112002 13 133 3.2 0.0 0.00 0.00 0.00 96 1010.9
20260904111502 13 133 4.8 0.0 0.00 0.00 0.00 96 1010.7
20260904111003 13 133 4.8 0.0 0.00 0.00 0.00 96 1010.7
20260904110502 13 133 6.4 0.0 0.00 0.00 0.00 96 1010.7
20260904110002 13 133 6.4 0.0 0.00 0.00 0.00 96 1010.7
20260904105500 13 134 4.8 0.0 0.00 0.00 0.00 95 1010.7
20260904105002 13 134 4.8 0.0 0.00 0.00 0.00 95 1010.6
20260904104601 13 134 4.8 0.0 0.00 0.00 0.00 95 1010.5
20260904104101 13 135 6.4 0.0 0.00 0.00 0.00 95 1010.5
20260904103559 13 130 4.8 0.0 0.00 0.00 0.00 95 1010.5
20260904103059 13 132 4.8 0.0 0.00 0.00 0.00 95 1010.4
20260904102602 13 131 4.8 0.0 0.00 0.00 0.00 95 1010.3
20260904102059 13 131 6.4 0.0 0.00 0.00 0.00 95 1010.2
20260904101603 13 130 6.4 0.0 0.00 0.00 0.00 95 1010.1
20260904101058 13 130 6.4 0.0 0.00 0.00 0.00 95 1010.0
20260904100558 13 130 6.4 0.0 0.00 0.00 0.00 95 1010.0
20260904100057 13 130 6.4 0.0 0.00 0.00 0.00 95 1010.0
20260904095556 13 134 6.4 0.0 0.00 0.00 0.00 95 1009.9
20260904095057 13 134 6.4 0.0 0.00 0.00 0.00 95 1009.9
20260904094556 13 132 6.4 0.0 0.00 0.00 0.00 95 1009.9
20260904094057 13 128 4.8 0.0 0.00 0.00 0.00 95 1009.9
20260904093555 13 142 4.8 0.0 0.00 0.00 0.00 95 1009.9
20260904093055 13 144 6.4 0.0 0.00 0.00 0.00 95 1009.9
20260904092557 13 144 4.8 0.0 0.00 0.00 0.00 94 1009.8
20260904092055 13 132 4.8 0.0 0.00 0.00 0.00 95 1009.8
20260904091555 13 132 4.8 0.0 0.00 0.00 0.00 95 1009.8
20260904091057 13 132 6.4 0.0 0.00 0.00 0.00 95 1009.8
20260904090552 13 136 4.8 0.0 0.00 0.00 0.00 95 1009.8
20260904090054 13 136 4.8 0.0 0.00 0.00 0.00 94 1009.7
20260904085552 13 137 6.4 0.0 0.00 0.00 0.00 94 1009.4
20260904085052 14 137 6.4 0.0 0.00 0.00 0.00 94 1009.5
20260904084552 14 132 6.4 0.0 0.00 0.00 0.00 94 1009.6
20260904084050 14 134 6.4 0.0 0.00 0.00 0.00 95 1009.6
20260904083550 14 134 6.4 0.0 0.00 0.00 0.00 95 1009.6
20260904083052 14 134 6.4 0.0 0.00 0.00 0.00 95 1009.6
20260904082549 14 134 6.4 0.0 0.00 0.00 0.00 95 1009.6
20260904082050 14 136 6.4 0.0 0.00 0.00 0.00 95 1009.4
20260904081554 14 133 4.8 0.0 0.00 0.00 0.00 95 1009.5
20260904081048 14 133 4.8 0.0 0.00 0.00 0.00 95 1009.5
20260904080549 14 133 6.4 0.0 0.00 0.00 0.00 95 1009.5
20260904080048 14 133 4.8 0.0 0.00 0.00 0.00 95 1009.4
20260904075548 14 131 4.8 0.0 0.00 0.00 0.00 95 1009.4
20260904075047 14 131 4.8 0.0 0.00 0.00 0.00 95 1009.5
20260904074547 15 132 4.8 0.0 0.00 0.00 0.00 95 1009.5
20260904074047 15 130 6.4 0.0 0.00 0.00 0.00 95 1009.6
20260904073549 15 129 6.4 0.0 0.00 0.00 0.00 95 1009.5
20260904073046 15 133 4.8 0.0 0.00 0.00 0.00 94 1009.4
20260904072545 15 134 6.4 0.0 0.00 0.00 0.00 94 1009.4
20260904072044 15 126 6.4 0.0 0.00 0.00 0.00 94 1009.4
20260904071544 15 125 6.4 0.0 0.00 0.00 0.00 94 1009.5
20260904071044 15 143 4.8 0.0 0.00 0.00 0.00 94 1009.6
20260904070544 15 144 4.8 0.0 0.00 0.00 0.00 94 1009.7
20260904070043 15 146 4.8 0.0 0.00 0.00 0.00 94 1009.8
20260904065542 15 137 4.8 0.0 0.00 0.00 0.00 94 1009.9
20260904065042 15 130 4.8 0.0 0.00 0.00 0.00 94 1009.7
20260904064542 15 130 4.8 0.0 0.00 0.00 0.00 94 1009.8
20260904064042 15 134 6.4 0.0 0.00 0.00 0.00 94 1009.6
20260904063544 15 135 4.8 0.0 0.00 0.00 0.00 94 1009.6
20260904063043 15 136 4.8 0.0 0.00 0.00 0.00 94 1009.6
20260904062540 15 137 4.8 0.0 0.00 0.00 0.00 94 1009.8
20260904062039 15 130 6.4 0.0 0.00 0.00 0.00 94 1009.7
20260904061544 15 123 8.0 0.0 0.00 0.00 0.00 94 1009.7
20260904061037 15 143 8.0 0.0 0.00 0.00 0.00 94 1009.8
20260904060539 15 130 8.0 0.0 0.00 0.00 0.00 94 1009.8
20260904060037 15 133 6.4 0.0 0.00 0.00 0.00 94 1009.8